Location: Fasanenhof
(48.7107°N, 9.1590°E)
Time: 22:15:31
(UTC+00:00)

ISS - Visible Passes

Search period start: 21 October 2019 00:00
Search period end: 31 October 2019 00:00
Orbit: 411 x 421 km, 51.6° (Epoch: 21 October)

Date Brightness Start Highest point End Pass type
(mag) Time Alt. Az. Time Alt. Az. Time Alt. Az.
24 Oct -0.8 04:49:54 10° SSE 04:51:42 14° SE 04:53:30 10° ESE visible
26 Oct -1.9 04:47:54 10° SSW 04:50:53 29° SE 04:53:52 10° E visible
27 Oct -1.4 04:00:46 14° S 04:02:24 20° SE 04:04:56 10° E visible
28 Oct -0.7 03:14:37 12° ESE 03:14:37 12° ESE 03:15:35 10° ESE visible
28 Oct -3.4 04:47:32 15° SW 04:50:11 61° SSE 04:53:31 10° ENE visible
29 Oct -2.8 04:01:15 40° SSE 04:01:36 41° SSE 04:04:48 10° ENE visible
30 Oct -0.9 03:14:49 18° E 03:14:49 18° E 03:16:00 10° E visible
30 Oct -3.8 04:47:44 24° W 04:49:35 76° NNW 04:52:58 10° ENE visible
